Location: China Springs Gulch
(40.8765°N, 123.1303°W)
Time: 02:30:12
(UTC+00:00)

Daily predictions for brighter satellites

Satellite Brightness Start Highest point End
(mag) Time Altitude Azimuth Time Altitude Azimuth Time Altitude Azimuth
CZ-4B R/B 3.4 04:08:55 10° S 04:14:11 73° WSW 04:19:32 10° NNW
Cosmos 1842 3.6 04:11:07 10° SSE 04:14:33 40° E 04:18:00 10° NNE
Cosmos 2251 Rocket 4.1 04:17:10 10° SSW 04:22:23 64° WNW 04:27:41 10° NNE
Cosmos 1066 Rocket 4.4 04:19:06 10° S 04:24:57 85° W 04:30:45 10° N
Cosmos 1626 4.2 04:25:57 10° SW 04:28:39 25° WNW 04:31:23 10° NNW
Cosmos 2360 Rocket 4.2 04:25:28 10° NNE 04:28:45 15° NE 04:32:02 10° E
Cosmos 540 Rocket 3.8 04:23:54 10° N 04:28:56 50° ENE 04:33:54 10° SE
ATLAS 2AS CENTAUR R/B 4.4 04:24:55 10° NNW 04:30:06 22° NNE 04:35:08 10° E
USA 186 3.8 04:28:37 10° SSW 04:31:31 28° W 04:34:28 10° NW
Cosmos 1707 2.5 04:35:43 10° S 04:39:16 65° E 04:42:52 10° NNE
SL-16 R/B 3.2 04:35:10 10° N 04:40:19 34° ENE 04:45:05 12° ESE
Cosmos 2082 Rocket 3.2 04:35:34 10° SW 04:41:07 52° WNW 04:46:41 10° NNE
Okean-O 2.6 04:36:49 10° SSE 04:41:11 78° ENE 04:45:36 10° N
Cosmos 2333 Rocket 4.1 04:38:20 10° N 04:42:13 18° NE 04:46:06 10° E
PSLV R/B 4.4 04:38:52 10° S 04:42:18 48° W 04:45:43 10° NNW
Cosmos 1515 Rocket 3.7 04:39:07 10° SSW 04:43:26 77° W 04:47:46 10° N
Cosmos 1954 Rocket 4.0 04:38:47 10° SSW 04:44:05 89° ESE 04:49:24 10° NNE
Cosmos 2369 4.0 04:38:42 10° NNW 04:44:25 72° WSW 04:50:06 10° SSE
SeaSat 1 3.3 04:42:03 11° ESE 04:46:17 37° NE 04:50:48 10° N
Cosmos 1633 Rocket 4.5 04:42:29 10° NNW 04:46:32 38° W 04:50:33 10° SSW
CZ-4C R/B 3.4 04:42:45 10° NNE 04:46:54 73° ESE 04:50:59 10° S
Atlas Centaur 2 3.6 04:42:11 10° WSW 04:49:31 40° S 04:56:31 12° ESE
USA 245 4.3 04:47:48 14° SE 04:50:12 31° ENE 04:53:54 10° N
Tiangong -1.8 04:49:47 10° W 04:52:51 49° SSW 04:54:54 18° SE
Cosmos 676 Rocket 4.1 04:49:52 10° SSW 04:55:12 89° WNW 05:00:33 10° NNE
SPOT 5 2.5 04:53:25 12° SSE 04:57:24 78° ENE 05:01:47 10° N
Cosmos 2228 Rocket 4.3 04:55:59 16° SE 04:58:36 26° E 05:02:22 10° NNE
Okean O Rocket 3.2 04:57:24 10° SSW 05:01:21 32° W 05:05:17 10° NNW
IRS-1A Rocket 4.3 04:57:29 13° SSE 05:02:23 71° ENE 05:07:53 10° N
MetOp-B 4.1 04:57:49 11° SSE 05:02:58 88° ENE 05:08:21 10° NNW
Cosmos 1869 Rocket 3.8 04:59:47 10° N 05:04:11 56° E 05:07:23 18° SSE
Cosmos 1674 4.4 05:02:29 10° SW 05:05:34 30° WNW 05:08:40 10° NNW
Cosmos 1400 Rocket 2.9 05:03:49 14° S 05:06:57 51° E 05:10:43 10° NNE
Cosmos 1553 Rocket 4.2 05:04:48 10° NNW 05:10:58 72° W 05:17:12 10° S
ERS-1 Rocket 3.0 05:10:39 17° SSE 05:14:30 73° ENE 05:19:31 10° N
S3M 4.1 05:08:11 10° N 05:14:32 65° E 05:19:22 18° SSE
ATLAS CENTAUR R/B 1.1 05:11:29 10° SSW 05:14:48 47° ESE 05:18:14 10° NE
Cosmos 1300 3.7 05:12:59 10° NNE 05:16:04 27° ENE 05:17:15 22° ESE
Cosmos 1441 Rocket 3.2 05:13:42 10° NNW 05:17:18 71° W 05:19:50 19° S
Cosmos 841 Rocket 3.7 05:13:29 10° NNW 05:18:42 61° ENE 05:22:02 22° SE
Meteor 1-22 Rocket 4.3 05:14:14 10° N 05:19:54 70° E 05:24:07 20° SSE
Cosmos 1980 Rocket 4.0 05:16:46 10° NW 05:21:22 26° WSW 05:25:55 10° SSW
Cosmos 2266 Rocket 4.0 05:16:04 10° S 05:22:21 84° E 05:28:47 10° N
Cosmos 2322 Rocket 2.7 05:17:49 10° NNW 05:23:19 47° ENE 05:26:46 22° SE
Cosmos 1655 Rocket 4.1 05:19:20 15° SSE 05:24:38 60° E 05:30:55 10° NNE
Cosmos 1908 3.7 05:21:31 10° NNW 05:25:02 51° W 05:27:39 16° SSW
Cosmos 1933 Rocket 4.5 05:21:04 10° NNW 05:25:19 47° W 05:29:22 11° SSW
Spot 2 Rocket 3.5 05:22:35 22° SSE 05:25:53 69° ENE 05:30:57 10° N
Timation 1 Rocket 4.3 05:20:31 10° SSW 05:26:28 87° ESE 05:32:27 10° NNE
Aureole 3 4.4 05:27:57 25° ESE 05:28:57 28° E 05:32:48 10° NNE
Resurs 01 Rocket 4.4 05:29:08 10° WSW 05:30:54 12° W 05:32:40 10° WNW
Cosmos 1862 Rocket 4.0 05:32:16 28° SE 05:34:03 44° E 05:38:15 10° NNE
Meteor 2-10 Rocket 3.6 05:28:58 10° N 05:34:31 69° ENE 05:37:35 26° SSE
Cosmos 2278 3.9 05:29:33 10° NNW 05:35:14 69° WSW 05:38:58 22° S
Terra 1.8 05:33:36 23° S 05:36:35 81° WSW 05:41:19 10° NNW
USA 234 3.6 05:30:59 10° NE 05:37:28 68° NW 05:43:56 10° WSW
Meteor 1-21 4.4 05:36:20 22° SSE 05:40:02 60° E 05:45:45 10° NNE
Landsat 5 3.7 05:36:57 10° NNE 05:40:51 46° E 05:42:09 34° SSE
SL-27 R/B 1.6 05:40:47 67° SE 05:40:55 69° ESE 05:43:41 10° NNE
Cosmos 883 Rocket 4.5 05:37:28 10° N 05:43:51 82° E 05:47:52 24° S
Okean 3 3.8 05:44:40 36° SE 05:45:47 46° E 05:49:46 10° NNE
Cosmos 2219 Rocket 3.4 05:43:41 10° N 05:48:42 31° ENE 05:51:37 20° ESE
SL-14 R/B 3.2 05:47:52 28° SSW 05:49:45 77° W 05:53:34 10° N
BREEZE-M DEB (TANK) 4.3 05:46:38 10° W 05:50:27 56° NNW 06:04:04 10° ENE
Ariane Rocket 3.1 05:47:41 26° S 05:50:37 75° WSW 05:55:44 10° NNW
Meteor 1-4 Rocket 3.1 05:53:21 32° ENE 05:53:21 32° ENE 05:55:33 10° NNE
Landsat 4 3.6 05:51:47 40° SSW 05:52:48 65° WSW 05:56:14 10° NNW
BREEZE-M DEB (TANK) 3.5 05:51:13 10° NW 05:53:11 31° NNE 05:54:33 21° ENE
Cosmos 1707 Rocket 3.5 05:52:13 28° S 05:54:34 88° W 05:59:02 10° N
SJ 16-02 1.3 05:53:27 39° SSE 05:54:45 57° ESE 05:59:00 10° NNE
Cosmos 1346 Rocket 2.6 05:56:27 10° N 06:00:20 86° E 06:01:14 51° SSE
RESURS DK-1 2.6 06:01:43 10° NNW 06:05:44 59° WSW 06:06:46 43° SSW
COSMOS 2455 4.2 06:07:48 20° E 06:07:48 20° E 06:11:44 10° ENE
ARIANE 5 R/B 3.9 06:08:40 24° E 06:09:34 26° ENE 06:13:09 10° NNE
Cosmos 2315 Rocket 4.2 06:04:19 10° NNW 06:10:40 69° W 06:14:25 26° S
CZ-4C R/B 4.0 06:13:08 11° E 06:13:08 11° E 06:13:40 10° ENE
Cosmos 2360 Rocket 2.1 06:07:50 10° NNW 06:13:33 89° SW 06:15:45 39° SSE
SPOT 3 Rocket 4.2 06:12:49 26° SSW 06:15:25 48° W 06:20:25 10° NNW
Cosmos 1242 Rocket 4.4 06:17:56 15° NE 06:17:56 15° NE 06:18:38 10° NE
Cosmos 1455 3.0 06:14:51 10° N 06:17:48 33° ENE 06:17:48 33° ENE
Cosmos 1733 Rocket 3.4 06:14:05 10° NNW 06:18:27 61° W 06:19:51 39° SSW
Cosmos 1758 4.3 06:15:52 10° NNW 06:19:32 39° W 06:20:44 30° SW
Cosmos 968 Rocket 4.0 06:17:01 16° SW 06:21:07 58° WNW 06:26:15 10° NNE
Cosmos 1932 4.4 06:15:23 10° SSW 06:21:41 89° WNW 06:28:00 10° NNE
ATLAS 2AS CENTAUR R/B 2.6 06:15:12 10° NNW 06:22:01 84° NE 06:24:53 37° SE
SeaSat 1 3.8 06:21:45 22° SSW 06:23:45 29° WSW 06:28:01 10° NW
Iridium 51 4.5 06:23:09 50° SSW 06:24:16 83° W 06:28:36 10° N
SL-16 R/B 3.3 06:19:17 10° NW 06:24:21 34° WSW 06:26:57 23° SSW
Okean 1-7 2.9 06:24:31 60° S 06:25:16 80° E 06:29:37 10° N
Cosmos 2333 Rocket 2.2 06:21:23 10° NNW 06:27:09 77° WSW 06:29:07 43° S
GP-B 3.5 06:26:15 10° NNE 06:30:29 45° E 06:30:43 45° E
Cosmos 1908 Rocket 3.6 06:28:04 10° N 06:32:21 57° E 06:32:43 55° ESE
Cosmos 1814 Rocket 4.0 06:28:58 10° NNW 06:34:18 84° WSW 06:35:43 50° S
USA 281 3.5 06:32:33 33° ESE 06:35:26 57° ENE 06:41:52 10° NNW
Atlas Centaur 2 3.8 06:31:10 10° WSW 06:38:09 31° SSW 06:38:43 30° S
SL-4 R/B 4.5 06:37:10 10° NW 06:40:10 20° NNE 06:43:18 10° ENE
Cosmos 2237 Rocket 4.2 06:44:00 10° N 06:47:55 19° NE 06:51:07 12° E
Okean 2 3.7 06:47:31 50° WSW 06:48:01 54° W 06:51:58 10° N
Cosmos 2322 4.1 06:45:16 10° NNW 06:50:51 55° ENE 06:52:24 42° ESE
Cosmos 2227 Rocket 4.3 06:52:28 12° E 06:52:28 12° E 06:54:02 10° ENE
ATLAS CENTAUR R/B 4.0 06:50:43 10° WNW 06:52:44 14° NW 06:54:46 10° N
Cosmos 1300 Rocket 4.3 06:49:23 10° N 06:53:24 39° ENE 06:53:24 39° ENE
Cosmos 1745 Rocket 4.0 06:53:20 48° SSE 06:55:07 69° E 07:01:26 10° NNE
ALOS 2 3.8 07:00:33 30° ENE 07:00:52 30° ENE 07:04:43 10° N
Cosmos 1315 Rocket 4.0 07:00:13 32° W 07:00:58 35° WNW 07:04:39 10° N
PSLV R/B 3.8 06:58:12 10° NNE 07:01:58 79° N 07:01:58 79° N
Cosmos 1953 2.9 07:01:24 10° NNW 07:04:51 45° W 07:04:51 45° W
Cosmos 2322 Rocket 3.7 07:02:31 10° NW 07:07:00 24° WSW 07:08:34 22° SW
Cosmos 839 Rocket 4.1 07:00:42 10° NW 07:07:16 66° WSW 07:08:45 50° S
Nadezhda 1 Rocket 3.9 07:01:10 10° N 07:07:29 83° E 07:09:04 53° SSE
Cosmos 1386 Rocket 4.5 07:06:46 45° SSW 07:08:49 80° W 07:15:05 10° N
Cosmos 1703 Rocket 4.2 07:10:00 45° WSW 07:10:39 49° W 07:15:00 10° N
Cosmos 2297 Rocket 2.8 07:11:26 38° ESE 07:11:26 38° ESE 07:16:29 10° NE
CENTAUR R/B 3.9 07:20:44 19° E 07:20:44 19° E 07:24:10 10° ENE
BlueWalker 3 2.9 07:23:59 42° NW 07:24:21 43° NNW 07:27:57 10° NE
Meteor 2-5 Rocket 4.0 07:24:15 51° ESE 07:25:01 55° E 07:30:43 10° NNE
Cosmos 2242 Rocket 3.6 07:25:41 82° NE 07:25:41 82° NE 07:30:08 10° N
Cosmos 1486 Rocket 3.8 07:26:40 76° S 07:27:05 86° ESE 07:32:19 10° NNE
Cosmos 371 Rocket 3.2 07:29:04 74° E 07:29:04 74° E 07:33:44 10° NNE
Cosmos 405 Rocket 4.4 07:26:53 10° NNE 07:29:29 25° ENE 07:29:29 25° ENE
COSMOS 2428 2.5 07:26:39 10° NNW 07:32:22 86° WSW 07:33:09 68° SSE
Cosmos 2219 Rocket 2.9 07:27:28 10° NW 07:32:41 39° WSW 07:33:19 37° WSW
SJ 16-02 4.0 07:31:18 10° W 07:33:29 14° WNW 07:35:41 10° NNW
H-2A R/B 2.7 07:34:51 64° WNW 07:34:51 64° WNW 07:38:46 10° NNW
Cosmos 1354 Rocket 4.3 07:42:03 53° E 07:42:03 53° E 07:47:08 10° NNE
Cosmos 2263 Rocket 4.3 07:45:28 13° E 07:45:28 13° E 07:47:35 10° ENE
ARIANE 5 R/B 4.0 07:46:08 27° W 07:46:08 27° W 07:49:34 10° NW
Cosmos 1703 4.1 07:49:39 44° NNW 07:49:39 44° NNW 07:52:20 10° N
Spot 4 4.1 07:49:59 57° W 07:49:59 57° W 07:54:40 10° NNW
NOSS 0 Rocket 3.8 07:46:34 10° NNW 07:52:51 89° WSW 07:53:59 62° SSE
COSMOS 2455 3.1 07:50:52 42° WSW 07:52:51 65° WNW 07:58:52 10° NNE
Cosmos 1709 Rocket 4.3 07:53:00 46° SW 07:54:42 61° W 08:01:01 10° N
Cosmos 2360 Rocket 4.4 07:55:01 10° W 07:56:37 11° W 07:57:30 11° WSW
Cosmos 1892 4.3 07:58:33 27° NE 07:58:33 27° NE 08:00:28 10° NNE
CZ-4C R/B 2.1 07:58:10 55° W 07:58:44 59° NW 08:04:03 10° NNE
Okean 1 Rocket 4.2 08:01:10 10° NNE 08:05:03 33° ENE 08:05:03 33° ENE
NOSS 3-2 (A) 4.5 08:06:19 25° E 08:06:19 25° E 08:10:07 10° NE
PSLV R/B 3.8 08:01:37 10° NNE 08:05:17 66° N 08:05:17 66° N
Cosmos 2184 Rocket 4.2 08:07:26 50° SE 08:08:36 58° E 08:14:50 10° NNE
Cosmos 2098 Rocket 3.9 08:03:18 10° N 08:09:57 81° W 08:11:08 61° SSW
SL-12 R/B(2) 4.3 08:08:53 46° SSE 08:10:53 57° ESE 08:19:51 10° NE
ATLAS 2AS CENTAUR R/B 4.3 08:07:59 10° WNW 08:11:58 17° WSW 08:12:17 17° WSW
SL-4 R/B 2.7 08:15:35 10° NW 08:19:38 52° NNE 08:19:47 52° NE
USA 281 4.3 08:19:25 26° WSW 08:20:13 27° WSW 08:25:38 10° NW
Cosmos 332 Rocket 3.7 08:22:36 86° NE 08:22:36 86° NE 08:27:25 10° NNE
SL-16 R/B 3.6 08:20:12 10° N 08:25:16 32° ENE 08:28:24 19° ESE
Cosmos 2154 Rocket 4.1 08:24:17 53° SE 08:25:27 63° E 08:31:38 10° NNE
Cosmos 990 Rocket 4.1 08:28:19 59° ESE 08:28:19 59° ESE 08:33:20 10° NNE
H-2A R/B 2.3 08:24:15 10° N 08:28:00 64° NNW 08:28:00 64° NNW
Cosmos 1825 3.5 08:30:09 34° N 08:30:09 34° N 08:32:14 10° N
Cosmos 2084 Rocket 4.0 08:30:25 54° NW 08:30:25 54° NW 08:34:20 10° NNE
Cosmos 773 Rocket 4.4 08:26:50 10° NNW 08:31:33 48° W 08:31:33 48° W
Cosmos 2237 Rocket 2.1 08:26:54 10° NNW 08:32:33 71° WSW 08:32:55 69° SW
Cosmos 2227 Rocket 2.1 08:34:15 69° SW 08:34:58 84° WNW 08:40:41 10° NNE
Cosmos 2151 Rocket 4.0 08:31:56 10° NNW 08:35:42 55° WNW 08:35:42 55° WNW
ALOS 2 4.3 08:37:56 23° W 08:37:56 23° W 08:40:45 10° NW
Cosmos 1455 Rocket 4.2 08:38:14 10° N 08:42:20 35° ENE 08:42:43 34° E
Okean 2 Rocket 3.5 08:38:35 10° NNW 08:42:29 53° WNW 08:42:29 53° WNW
Cosmos 1980 3.9 08:40:08 10° NNW 08:45:37 51° WSW 08:45:41 51° WSW
GEOS 3 Rocket 3.7 08:41:16 10° NNE 08:46:24 69° NW 08:47:19 56° WSW
Cosmos 1674 Rocket 4.3 08:46:56 42° WNW 08:46:56 42° WNW 08:50:49 10° N
CZ-2D R/B 4.4 08:45:18 10° ENE 08:47:03 12° E 08:48:48 10° ESE
Cosmos 1538 Rocket 4.5 08:42:12 10° N 08:47:18 54° ENE 08:48:33 43° ESE
Cosmos 1174 4.3 08:43:22 10° NNW 08:47:19 60° NW 08:47:19 60° NW
Meteor 1-21 Rocket 4.3 08:50:20 58° SE 08:51:16 68° E 08:56:57 10° NNE
Cosmos 1025 Rocket 3.1 08:54:33 76° N 08:54:33 76° N 08:58:33 10° N
Cosmos 2297 Rocket 3.5 08:53:11 24° W 08:55:22 31° WNW 09:00:23 10° N
Cosmos 2219 3.0 08:57:02 68° S 08:57:47 82° ESE 09:03:25 10° NNE
Cosmos 1610 Rocket 4.5 08:59:32 56° S 09:01:03 87° W 09:07:27 10° N
Aureole 1 Rocket 3.3 09:05:11 52° NE 09:05:11 52° NE 09:08:27 10° NNE
Helios 1A Rocket 3.5 09:08:46 45° ENE 09:08:46 45° ENE 09:12:23 10° N
CENTAUR R/B 2.6 09:07:50 45° WSW 09:09:34 64° NW 09:16:21 10° NNE
Cosmos 1461 3.9 09:11:56 35° E 09:11:56 35° E 09:14:47 10° NE
ADEOS II 4.4 09:10:13 10° ENE 09:12:39 13° E 09:15:07 10° ESE
CRYOSAT 2 4.4 09:08:49 10° N 09:13:43 69° E 09:14:18 62° SE
Cosmos 2341 Rocket 4.3 09:12:42 42° SSE 09:14:36 59° E 09:20:42 10° NNE
Cosmos 1937 Rocket 3.8 09:18:39 50° SE 09:19:28 56° ESE 09:24:37 10° NNE
Cosmos 1339 Rocket 4.5 09:16:07 10° N 09:22:33 88° E 09:24:38 46° S
Cosmos 1898 Rocket 3.3 09:22:24 66° S 09:23:08 84° ESE 09:28:20 10° NNE
Resurs 1-4 Rocket 3.5 09:22:00 10° NE 09:26:35 29° E 09:28:26 24° SE
Cosmos 2263 Rocket 2.1 09:27:08 57° SW 09:28:20 81° WNW 09:33:56 10° NNE
Cosmos 1869 3.4 09:37:20 10° N 09:40:59 59° E 09:41:04 58° E
Cosmos 1844 Rocket 4.1 09:45:59 22° SE 09:48:13 28° ESE 09:52:56 10° NE
Cosmos 1437 Rocket 4.3 09:47:29 24° ESE 09:48:21 26° E 09:51:33 10° NE
Cosmos 2218 Rocket 3.9 09:48:21 41° S 09:50:43 88° E 09:56:56 10° N
Cosmos 1544 Rocket 3.6 09:49:36 10° N 09:54:03 78° E 09:55:05 52° SSE
NOSS 3-2 (A) 3.9 09:53:39 29° W 09:55:53 44° NW 10:01:41 10° NNE
Cosmos 2228 3.4 09:52:52 10° N 09:57:08 60° E 09:58:31 39° SE
Cosmos 2366 rocket 3.9 09:55:01 41° SSW 09:57:25 79° W 10:03:42 10° N
Cosmos 1680 Rocket 3.6 09:52:20 10° NNW 09:57:33 72° ENE 10:00:26 27° SSE
Cosmos 2112 Rocket 4.3 09:54:41 10° NNW 09:59:50 63° ENE 10:03:19 21° SE
Cosmos 1818 3.7 09:54:41 10° NNW 10:00:11 74° NE 10:05:15 12° SE
NOSS 3-2 (C) 3.0 10:00:07 46° SW 10:01:47 86° WNW 10:07:47 10° NE
Cosmos 1975 Rocket 4.1 10:04:04 29° W 10:04:30 30° WNW 10:08:23 10° NNW
MSX 3.8 10:00:20 10° NNE 10:06:05 78° ESE 10:08:36 36° S
USA 267 3.9 10:02:26 10° ENE 10:08:31 40° SE 10:11:21 27° S
SL-16 R/B 2.7 10:04:11 10° NW 10:09:23 38° WSW 10:10:13 36° SW
BREEZE-M DEB (TANK) 3.4 10:06:01 10° WNW 10:08:03 26° WNW 10:08:03 26° WNW
H-2A R/B 3.2 10:07:07 10° NNE 10:11:07 88° W 10:11:52 58° SSW
IDEFIX/ARIANE 42P 2.6 10:11:42 10° N 10:16:56 72° WNW 10:18:58 38° SSW
Cosmos 2227 Rocket 4.4 10:16:54 10° W 10:19:54 14° NW 10:22:54 10° NNW
CZ-2C R/B 2.5 10:18:44 26° SSE 10:21:48 89° WSW 10:27:12 10° NNW
SL-16 R/B 3.5 10:16:00 10° SE 10:21:54 47° ENE 10:27:50 10° N
CZ-2C R/B 3.1 10:17:58 10° NNE 10:23:23 77° ESE 10:25:53 31° S
Cosmos 1943 3.1 10:18:33 10° NNW 10:24:12 87° ENE 10:29:23 12° SSE
CZ-2D R/B 2.0 10:22:21 10° NNE 10:27:42 83° WNW 10:30:13 32° SSW
Cosmos 1606 3.6 10:24:56 10° NNW 10:27:48 29° W 10:27:48 29° W
Cosmos 1606 Rocket 4.4 10:25:15 10° N 10:29:34 48° E 10:33:16 13° SSE
Cosmos 921 Rocket 4.1 10:25:43 10° N 10:29:44 42° ENE 10:33:41 10° SE
FENGYUN 3A 3.8 10:25:53 10° NNE 10:31:15 70° ESE 10:34:26 25° S
Cosmos 1536 Rocket 3.8 10:32:33 38° SW 10:33:58 57° W 10:38:21 10° N
ASTEX 1 3.9 10:31:48 14° SSE 10:35:51 57° E 10:40:37 10° N
Cosmos 1867 3.6 10:41:52 29° SW 10:44:44 81° WNW 10:50:15 10° NNE
Cosmos 1726 Rocket 4.3 10:40:41 10° N 10:45:01 52° E 10:49:19 10° SSE
NPP 4.3 10:40:01 10° N 10:45:04 42° WNW 10:47:45 25° SW
Dummy Sat-02 4.5 10:45:40 10° N 10:49:21 88° W 10:51:14 27° S
Cosmos 2239 Rocket 4.4 10:45:34 22° SSW 10:49:39 80° W 10:55:50 10° N
Cosmos 494 Rocket 4.1 10:44:41 10° NNW 10:49:57 80° ENE 10:55:11 10° SSE
Cosmos 1727 Rocket 4.1 10:44:05 10° NNW 10:50:20 64° W 10:55:03 18° S
Cosmos 2058 4.3 10:48:10 11° SSE 10:51:41 34° E 10:55:23 10° NNE
ADEOS II 2.1 10:47:33 10° N 10:52:48 73° WNW 10:56:03 24° SSW
SAR-Lupe-4 4.3 10:51:03 10° NNE 10:54:30 46° E 10:56:48 19° SSE
Cosmos 1844 3.7 10:57:17 23° SSW 11:01:03 81° WNW 11:06:53 10° NNE
Cosmos 1000 Rocket 4.5 10:58:03 10° NNW 11:04:18 71° W 11:10:18 11° S
Resurs 1-4 Rocket 3.0 11:01:37 10° N 11:06:21 35° WNW 11:09:30 19° WSW
Iridium 4 Rocket 4.2 11:02:45 10° N 11:07:06 48° E 11:11:48 10° SSE
USA 238 DEB 3.8 11:03:40 20° SW 11:08:02 59° NW 11:14:39 10° NNE
USA 238 3.8 11:03:42 20° SW 11:08:05 60° NW 11:14:42 10° NNE
ATLAS 5 CENTAUR R/B 3.3 11:07:04 10° SSE 11:09:05 15° ESE 11:11:08 10° ENE
UNK 4.0 11:05:44 10° SSE 11:10:19 70° ENE 11:14:53 10° N
Meteor 1-28 Rocket 3.1 11:10:01 20° S 11:12:14 53° W 11:15:43 10° NNW
Cosmos 2263 Rocket 4.3 11:10:26 10° WNW 11:13:08 13° NW 11:15:51 10° NNW
AQUA 4.1 11:09:38 10° N 11:14:14 53° WNW 11:17:29 19° SW
Timation 2 Rocket 4.3 11:08:51 15° SSW 11:14:33 72° ESE 11:20:57 10° NNE
Cosmos 1544 3.8 11:13:19 11° SSE 11:15:31 32° E 11:17:55 10° NNE
Delta 2 Rocket 4.0 11:18:28 19° WSW 11:20:37 33° S 11:24:31 10° SE
Cosmos 1892 Rocket 3.7 11:19:49 17° SSW 11:23:05 60° W 11:27:28 10° N
Cosmos 2058 Rocket 3.3 11:19:05 10° N 11:23:31 72° E 11:27:53 10° SSE
Cosmos 1437 Rocket 4.4 11:22:17 15° WSW 11:23:58 19° WNW 11:26:46 10° NNW
ALOS 2.5 11:21:47 10° N 11:26:18 55° WNW 11:30:00 15° SSW
Cosmos 1535 Rocket 4.5 11:25:09 10° S 11:31:23 86° W 11:37:34 10° N
Cosmos 1844 Rocket 3.4 11:27:38 15° SW 11:31:54 40° WNW 11:37:07 10° N
METEOR-M 4.3 11:28:18 10° NNE 11:33:40 78° ESE 11:39:00 10° S
Cosmos 2298 Rocket 4.3 11:30:05 10° S 11:35:21 68° ESE 11:40:39 10° NNE
SAR-Lupe-1 4.4 11:33:16 10° N 11:36:45 48° WNW 11:39:40 13° SW
Cosmos 1607 4.0 11:36:58 10° NW 11:43:18 67° WSW 11:49:28 10° SSE
Orbus 7S? 4.5 11:41:17 10° WNW 11:44:34 33° SW 11:50:39 10° SSE
CZ-4 R/B 3.9 11:43:20 10° NNE 11:48:17 84° WNW 11:53:15 10° SSW
Cosmos 1605 Rocket 4.0 11:43:04 10° SSW 11:49:15 75° W 11:55:25 10° N
Cosmos 1626 Rocket 3.7 11:45:24 10° S 11:49:50 84° E 11:54:16 10° N
NOSS 2-2 (C) 3.0 11:46:58 10° SSW 11:50:19 67° SE 11:53:24 10° NE
USA 267 3.6 11:45:15 10° NE 11:51:39 60° NW 11:58:03 10° WSW
H-2A R/B 3.8 11:48:36 10° NNE 11:53:19 31° E 11:57:52 10° SSE
Cosmos 2278 Rocket 4.1 11:49:55 10° SSE 11:54:34 27° ESE 11:59:14 10° NE
SWAS 4.5 11:51:00 10° SSW 11:55:10 80° ESE 11:59:22 10° NNE
